Location: Aulagny
(45.1643°N, 4.3096°E)
Time: 00:17:04
(UTC+00:00)

Ariane Rocket - Pass Details

Date: 21 October 2019
Orbit: 760 x 770 km, 98.8° (Epoch: 11 November)

Event Time Altitude Azimuth Distance (km) Brightness Sun altitude
Exits shadow 19:15:57 - 186° (S) 2,480 5.6 -26.7°
Reaches altitude 10° 19:16:24 10° 188° (S) 2,305 5.4 -26.7°
Maximum altitude 19:21:16 45° 261° (W) 1,045 4.0 -27.6°
Drops below altitude 10° 19:26:10 10° 334° (NNW) 2,323 5.9 -28.4°
Sets 19:28:36 0° 340° (NNW) 3,254 6.7 -28.8°
